Regional Weather Roundup
Issued by NWS

Home | Current Version | Previous Version | Text Only | Print | Product List | Glossary Off
Versions: 1 2 3 4 5 6 7 8 9 10 11 12 13 14 15 16 17 18 19 20 21 22 23 24 25 26 27 28 29 30 31 32 33 34 35 36 37 38 39 40 41 42 43 44 45 46 47 48 49 50

000
ASUS43 KLOT 311206
RWRIL

ILLINOIS REGIONAL WEATHER ROUNDUP
NATIONAL WEATHER SERVICE CHICAGO/ROMEOVILLE IL
700 AM CDT THU JUL 31 2014

NOTE: "FAIR" INDICATES FEW OR NO CLOUDS BELOW 12,000 FEET WITH NO
SIGNIFICANT WEATHER AND/OR OBSTRUCTIONS TO VISIBILITY.

* THESE STATIONS ARE NOT UNDER NWS QUALITY CONTROL. THEY ALSO MAY NOT
  REPORT WEATHER SUCH AS PRECIPITATION OR FOG.

ILZ001-002-007-009-015-016-024-311300-
NORTHWEST ILLINOIS

CITY           SKY/WX    TMP DP  RH WIND       PRES   REMARKS
MOLINE         SUNNY     60  57  89 SW3       30.06R
6HR MIN TEMP:  58; 6HR MAX TEMP:  63;

STERLING*      SUNNY     59  55  88 W3        30.06S
SAVANNA*       SUNNY     58  56  94 S3        30.05R FOG
$$

ILZ003-004-008-010-011-017-018-311300-
NORTH CENTRAL ILLINOIS

CITY           SKY/WX    TMP DP  RH WIND       PRES   REMARKS
ROCKFORD       MOSUNNY   58  55  90 S5        30.05F
6HR MIN TEMP:  56; 6HR MAX TEMP:  59;

FREEPORT*      SUNNY     60  58  92 W6        30.06S
ROCHELLE*      SUNNY     55  53  94 S5        30.05S FOG
DE KALB*       SUNNY     61  55  83 W8        30.05S
PERU*          SUNNY     60  58  92 SW3       30.07R
$$

ILZ005-006-012>014-019>023-311300-
NORTHEAST ILLINOIS

CITY           SKY/WX    TMP DP  RH WIND       PRES   REMARKS
CHICAGO-OHARE  PTSUNNY   64  55  72 NW5       30.02S
6HR MIN TEMP:  59; 6HR MAX TEMP:  64;

CHICAGO-MIDWAY MOSUNNY   65  60  84 SW5       30.03S
6HR MIN TEMP:  63; 6HR MAX TEMP:  66;

AURORA         SUNNY     57  54  89 CALM      30.04F FOG
6HR MIN TEMP:  53; 6HR MAX TEMP:  57;

LANSING*         N/A     58  56  95 CALM      30.04S FOG
JOLIET*        SUNNY     57  56  97 SW3       30.06S FOG
WAUKEGAN       CLOUDY    63  56  78 VRB3      30.01S
6HR MIN TEMP:  58; 6HR MAX TEMP:  63;

DUPAGE AIRPORT SUNNY     59  55  87 CALM      30.03S
6HR MIN TEMP:  57; 6HR MAX TEMP:  61;

KANKAKEE*      SUNNY     56  56  98 CALM      30.07R FOG
WHEELING       CLOUDY    63  59  87 S3        30.04S
6HR MIN TEMP:  60; 6HR MAX TEMP:  63; 6HR PCP:  0.03;

MORRIS*        SUNNY     57  57  99 SW3       30.05S
ROMEOVILLE*    SUNNY     58  58 100 S5        30.04S FOG
NORTHERLY ISL    N/A     66  57  72 W8          N/A
$$

LMZ740>746-311300-
SOUTHERN LAKE MICHIGAN

STATION/POSITION SKY/WX   TEMP    WIND        PRES    VSBY  WAVE
                          AIR SEA DIR/SP/G                  HT/PER
                          (F)     (DEG/KT/KT) (MB)    (MI)  (FT/S)
SOUTHERN BUOY              62 60  240/ 12/ 12 1015.9R         1/ 3
WAUKEGAN HARBOR            64     260/  8/ 11   N/A
HARRISON CRIB              67     260/ 10/ 11   N/A
BURNHAM HARBOR             66     250/  6/  9   N/A
CALUMET HARBOR             63     230/  4/  5 1015.8S
MICHIGAN CITY              63     180/  8/ 14   N/A
MICHIGAN CITY 6N           65 69  200/ 10/ 12   N/A           1/ 2
ST. JOSEPH                 66 69  190/ 12/ 14   N/A           2/ 2
$$

ILZ025>027-034>036-040-047-049-050-058-095>099-311300-
WEST-CENTRAL ILLINOIS

CITY           SKY/WX    TMP DP  RH WIND       PRES   REMARKS
QUINCY         FOG       59  58  96 SW3       30.09S VSB 1/2
GALESBURG*     SUNNY     55  55  99 CALM      30.08S
MACOMB*          N/A     56  56 100 W3        30.10S
JACKSONVILLE*  SUNNY     61  60  97 CALM      30.10S
PITTSFIELD*    CLEAR     59  56  90 CALM      30.11R
$$

ILZ028>032-037-038-041>044-048-051>054-059>061-311300-
CENTRAL ILLINOIS

CITY           SKY/WX    TMP DP  RH WIND       PRES   REMARKS
PONTIAC        SUNNY     55  55 100 CALM      30.07S FOG
DECATUR        SUNNY     60  57  89 CALM      30.08S
PEORIA         SUNNY     62  57  83 CALM      30.07S
6HR MIN TEMP:  60; 6HR MAX TEMP:  66;

LACON*         SUNNY     60  58  95 CALM      30.06S FOG
LINCOLN*       SUNNY     58  56  94 CALM      30.06S FOG
SPRINGFIELD    SUNNY     60  57  89 SW3       30.08S
6HR MIN TEMP:  57; 6HR MAX TEMP:  63;

TAYLORVILLE    SUNNY     55  54  94 S3        30.09S
$$

ILZ033-039-045-046-055>057-062-063-311300-
EAST-CENTRAL ILLINOIS

CITY           SKY/WX    TMP DP  RH WIND       PRES   REMARKS
CHAMPAIGN      SUNNY     60  58  92 NW3       30.08S
DANVILLE*      SUNNY     58  57  97 CALM      30.05S
RANTOUL*       SUNNY     61  58  88 W6        30.08F
MATTOON        SUNNY     64  58  80 W6        30.08S
PARIS*         SUNNY     59  58  96 CALM      30.09S
$$

ILZ079-100>102-311300-
SOUTHWEST ILLINOIS

CITY           SKY/WX    TMP DP  RH WIND       PRES   REMARKS
ALTON          MOSUNNY   57  57 100 CALM      30.09S
BELLEVILLE     MOSUNNY   58  58 100 SE1       30.08R
CAHOKIA*       CLEAR     60  59  96 CALM      30.09R
SPARTA*        PTSUNNY   57  55  94 CALM      30.10R FOG
$$

ILZ064>066-069>071-074>076-080>082-084>086-088>090-092>094-311300-
SOUTH-CENTRAL ILLINOIS

CITY           SKY/WX    TMP DP  RH WIND       PRES   REMARKS
CARBONDALE     MOSUNNY   60  59  96 CALM      30.09R FOG
6HR MIN TEMP:  57; 6HR MAX TEMP:  62;

CAIRO*           N/A     63  62  94 CALM      30.10R FOG
EFFINGHAM*     SUNNY     60  57  90 CALM      30.09S
MARION         SUNNY     61  61 100 SE6       30.10R
MT. VERNON     SUNNY     57  54  88 CALM      30.10S
CENTRALIA*     SUNNY     67  59  77 CALM      30.09R
SALEM*         FOG      N/A N/A N/A CALM      30.09S VSB 3/4
METROPOLIS*    PTSUNNY   60  59  97 CALM      30.09R
$$

ILZ067-068-072-073-078-083-087-091-311300-
SOUTHEAST ILLINOIS

CITY           SKY/WX    TMP DP  RH WIND       PRES   REMARKS
LAWRENCEVILLE  SUNNY     61  60  97 CALM      30.09S FOG
FLORA*         SUNNY     57  56  99 CALM      30.09S
FAIRFIELD*     SUNNY     61  59  94 CALM      30.09R FOG
HARRISBURG*    SUNNY     57  57 100 CALM      30.10S FOG
ROBINSON*      SUNNY     60  59  97 CALM      30.10R FOG
CARMI*         SUNNY     61  61 100 CALM      30.09R FOG
$$

ABBREVIATIONS USED IN REMARKS
   TC - TEMPERATURE IN CELSIUS
  WCI - WIND CHILL INDEX
   HX - HEAT INDEX
  VSB - VISIBILITY
$$




USA.gov is the U.S. government's official web portal to all federal, state and local government web resources and services.